owner,sensor,date,latitude,longitude,vertical_datum,wind_speed,wind_to_direction,wind_speed_of_gust,qcFlag 
NDBC,ioos:station:NOAA.NDBC:SRST2:1,2019-05-01T02:00:00Z,29.6830,-94.0330,9.1,9.8,140.0,12.4,'11111222,11111222,11111222' 
NDBC,ioos:station:NOAA.NDBC:SRST2:1,2019-05-01T03:00:00Z,29.6830,-94.0330,9.1,8.8,150.0,10.8,'11111222,11111222,11111222' 
NDBC,ioos:station:NOAA.NDBC:SRST2:1,2019-05-01T06:00:00Z,29.6830,-94.0330,9.1,7.7,160.0,10.3,'11111222,11111222,11111222' 
NDBC,ioos:station:NOAA.NDBC:SRST2:1,2019-05-01T07:00:00Z,29.6830,-94.0330,9.1,8.8,160.0,10.8,'11111222,11111222,11111222' 
NDBC,ioos:station:NOAA.NDBC:SRST2:1,2019-05-01T08:00:00Z,29.6830,-94.0330,9.1,8.2,170.0,10.3,'11111222,11111222,11111222' 
NDBC,ioos:station:NOAA.NDBC:SRST2:1,2019-05-01T09:00:00Z,29.6830,-94.0330,9.1,8.2,150.0,9.8,'11111222,11111222,11111222' 
NDBC,ioos:station:NOAA.NDBC:SRST2:1,2019-05-01T10:00:00Z,29.6830,-94.0330,9.1,7.7,150.0,9.3,'11111222,11111222,11111222' 
NDBC,ioos:station:NOAA.NDBC:SRST2:1,2019-05-01T12:00:00Z,29.6830,-94.0330,9.1,7.2,150.0,8.2,'11111222,11111222,11111222' 
NDBC,ioos:station:NOAA.NDBC:SRST2:1,2019-05-01T14:00:00Z,29.6830,-94.0330,9.1,6.7,150.0,7.7,'11111222,11111222,11111222' 
NDBC,ioos:station:NOAA.NDBC:SRST2:1,2019-05-01T18:00:00Z,29.6830,-94.0330,9.1,7.7,140.0,9.8,'11111222,11111222,11111222' 
NDBC,ioos:station:NOAA.NDBC:SRST2:1,2019-05-01T22:00:00Z,29.6830,-94.0330,9.1,8.2,130.0,9.8,'11111222,11111222,11111222' 
NDBC,ioos:station:NOAA.NDBC:SRST2:1,2019-05-01T23:00:00Z,29.6830,-94.0330,9.1,7.7,140.0,10.3,'11111222,11111222,11111222' 
NDBC,ioos:station:NOAA.NDBC:SRST2:1,2019-05-02T00:00:00Z,29.6830,-94.0330,9.1,8.8,140.0,10.8,'11111222,11111222,11111222' 
NDBC,ioos:station:NOAA.NDBC:SRST2:1,2019-05-02T02:00:00Z,29.6830,-94.0330,9.1,9.8,130.0,13.4,'11111222,11111222,11111222' 
NDBC,ioos:station:NOAA.NDBC:SRST2:1,2019-05-02T03:00:00Z,29.6830,-94.0330,9.1,7.7,140.0,9.8,'11111222,11111222,11111222' 
NDBC,ioos:station:NOAA.NDBC:SRST2:1,2019-05-02T04:00:00Z,29.6830,-94.0330,9.1,10.3,150.0,11.8,'11111222,11111222,11111222' 
NDBC,ioos:station:NOAA.NDBC:SRST2:1,2019-05-02T05:00:00Z,29.6830,-94.0330,9.1,7.2,150.0,8.8,'11111222,11111222,11111222' 
NDBC,ioos:station:NOAA.NDBC:SRST2:1,2019-05-02T07:00:00Z,29.6830,-94.0330,9.1,7.7,160.0,9.3,'11111222,11111222,11111222' 
NDBC,ioos:station:NOAA.NDBC:SRST2:1,2019-05-02T09:00:00Z,29.6830,-94.0330,9.1,7.2,160.0,9.3,'11111222,11111222,11111222' 
NDBC,ioos:station:NOAA.NDBC:SRST2:1,2019-05-02T11:00:00Z,29.6830,-94.0330,9.1,8.8,160.0,10.3,'11111222,11111222,11111222' 
NDBC,ioos:station:NOAA.NDBC:SRST2:1,2019-05-02T12:00:00Z,29.6830,-94.0330,9.1,7.2,160.0,9.3,'11111222,11111222,11111222' 
NDBC,ioos:station:NOAA.NDBC:SRST2:1,2019-05-02T14:00:00Z,29.6830,-94.0330,9.1,1.0,60.0,1.5,'11111222,11111222,11111222' 
NDBC,ioos:station:NOAA.NDBC:SRST2:1,2019-05-02T15:00:00Z,29.6830,-94.0330,9.1,7.2,360.0,8.8,'11111222,11144222,11111222' 
NDBC,ioos:station:NOAA.NDBC:SRST2:1,2019-05-02T16:00:00Z,29.6830,-94.0330,9.1,5.1,60.0,7.7,'11111222,11111222,11111222' 
NDBC,ioos:station:NOAA.NDBC:SRST2:1,2019-05-02T21:00:00Z,29.6830,-94.0330,9.1,6.7,120.0,7.7,'11111222,11111222,11111222' 
NDBC,ioos:station:NOAA.NDBC:SRST2:1,2019-05-02T22:00:00Z,29.6830,-94.0330,9.1,6.7,140.0,8.8,'11111222,11111222,11111222' 
NDBC,ioos:station:NOAA.NDBC:SRST2:1,2019-05-02T23:00:00Z,29.6830,-94.0330,9.1,4.6,140.0,6.2,'11111222,11111222,11111222' 
NDBC,ioos:station:NOAA.NDBC:SRST2:1,2019-05-03T00:00:00Z,29.6830,-94.0330,9.1,5.7,140.0,7.2,'11111222,11111222,11111222' 
NDBC,ioos:station:NOAA.NDBC:SRST2:1,2019-05-03T02:00:00Z,29.6830,-94.0330,9.1,4.6,170.0,5.7,'11111222,11111222,11111222' 
NDBC,ioos:station:NOAA.NDBC:SRST2:1,2019-05-03T03:00:00Z,29.6830,-94.0330,9.1,3.6,180.0,4.1,'11111222,11111222,11111222' 
NDBC,ioos:station:NOAA.NDBC:SRST2:1,2019-05-03T04:00:00Z,29.6830,-94.0330,9.1,2.1,120.0,2.1,'11111222,11111222,11111222' 
NDBC,ioos:station:NOAA.NDBC:SRST2:1,2019-05-03T05:00:00Z,29.6830,-94.0330,9.1,4.1,60.0,4.6,'11111222,11111222,11111222' 
NDBC,ioos:station:NOAA.NDBC:SRST2:1,2019-05-03T06:00:00Z,29.6830,-94.0330,9.1,3.6,110.0,4.6,'11111222,11111222,11111222' 
NDBC,ioos:station:NOAA.NDBC:SRST2:1,2019-05-03T07:00:00Z,29.6830,-94.0330,9.1,3.1,110.0,4.1,'11111222,11111222,11111222' 
NDBC,ioos:station:NOAA.NDBC:SRST2:1,2019-05-03T08:00:00Z,29.6830,-94.0330,9.1,4.1,130.0,5.7,'11111222,11111222,11111222' 
NDBC,ioos:station:NOAA.NDBC:SRST2:1,2019-05-03T09:00:00Z,29.6830,-94.0330,9.1,4.6,120.0,5.7,'11111222,11111222,11111222' 
NDBC,ioos:station:NOAA.NDBC:SRST2:1,2019-05-03T10:00:00Z,29.6830,-94.0330,9.1,4.6,140.0,5.7,'11111222,11111222,11111222' 
NDBC,ioos:station:NOAA.NDBC:SRST2:1,2019-05-03T12:00:00Z,29.6830,-94.0330,9.1,3.6,140.0,5.1,'11111222,11111222,11111222' 
NDBC,ioos:station:NOAA.NDBC:SRST2:1,2019-05-03T13:00:00Z,29.6830,-94.0330,9.1,4.6,130.0,5.7,'11111222,11111222,11111222' 
NDBC,ioos:station:NOAA.NDBC:SRST2:1,2019-05-03T17:00:00Z,29.6830,-94.0330,9.1,6.2,140.0,7.7,'11111222,11111222,11111222' 
NDBC,ioos:station:NOAA.NDBC:SRST2:1,2019-05-03T18:00:00Z,29.6830,-94.0330,9.1,5.1,140.0,6.7,'11111222,11111222,11111222' 
NDBC,ioos:station:NOAA.NDBC:SRST2:1,2019-05-03T19:00:00Z,29.6830,-94.0330,9.1,5.7,130.0,7.2,'11111222,11111222,11111222' 
NDBC,ioos:station:NOAA.NDBC:SRST2:1,2019-05-03T20:00:00Z,29.6830,-94.0330,9.1,6.2,150.0,7.2,'11111222,11111222,11111222' 
NDBC,ioos:station:NOAA.NDBC:SRST2:1,2019-05-03T21:00:00Z,29.6830,-94.0330,9.1,5.7,140.0,7.2,'11111222,11111222,11111222' 
NDBC,ioos:station:NOAA.NDBC:SRST2:1,2019-05-03T22:00:00Z,29.6830,-94.0330,9.1,5.1,130.0,6.2,'11111222,11111222,11111222' 
NDBC,ioos:station:NOAA.NDBC:SRST2:1,2019-05-03T23:00:00Z,29.6830,-94.0330,9.1,4.6,150.0,5.7,'11111222,11111222,11111222' 
NDBC,ioos:station:NOAA.NDBC:SRST2:1,2019-05-04T00:00:00Z,29.6830,-94.0330,9.1,6.2,150.0,7.2,'11111222,11111222,11111222' 
NDBC,ioos:station:NOAA.NDBC:SRST2:1,2019-05-04T02:00:00Z,29.6830,-94.0330,9.1,5.1,150.0,6.2,'11111222,11111222,11111222' 
NDBC,ioos:station:NOAA.NDBC:SRST2:1,2019-05-04T03:00:00Z,29.6830,-94.0330,9.1,5.1,150.0,6.2,'11111222,11111222,11111222' 
NDBC,ioos:station:NOAA.NDBC:SRST2:1,2019-05-04T04:00:00Z,29.6830,-94.0330,9.1,4.6,150.0,5.7,'11111222,11111222,11111222' 
NDBC,ioos:station:NOAA.NDBC:SRST2:1,2019-05-04T06:00:00Z,29.6830,-94.0330,9.1,4.6,140.0,5.7,'11111222,11111222,11111222' 
NDBC,ioos:station:NOAA.NDBC:SRST2:1,2019-05-04T07:00:00Z,29.6830,-94.0330,9.1,5.7,150.0,7.2,'11111222,11111222,11111222' 
NDBC,ioos:station:NOAA.NDBC:SRST2:1,2019-05-04T08:00:00Z,29.6830,-94.0330,9.1,6.2,150.0,7.2,'11111222,11111222,11111222' 
NDBC,ioos:station:NOAA.NDBC:SRST2:1,2019-05-04T09:00:00Z,29.6830,-94.0330,9.1,8.8,170.0,10.3,'11111222,11111222,11111222' 
NDBC,ioos:station:NOAA.NDBC:SRST2:1,2019-05-04T11:00:00Z,29.6830,-94.0330,9.1,4.1,140.0,4.6,'11111222,11111222,11111222' 
NDBC,ioos:station:NOAA.NDBC:SRST2:1,2019-05-04T12:00:00Z,29.6830,-94.0330,9.1,4.1,160.0,4.6,'11111222,11111222,11111222' 
NDBC,ioos:station:NOAA.NDBC:SRST2:1,2019-05-04T13:00:00Z,29.6830,-94.0330,9.1,4.1,290.0,5.7,'11111222,11111222,11111222' 
NDBC,ioos:station:NOAA.NDBC:SRST2:1,2019-05-04T14:00:00Z,29.6830,-94.0330,9.1,4.6,310.0,5.1,'11111222,11111222,11111222' 
NDBC,ioos:station:NOAA.NDBC:SRST2:1,2019-05-04T16:00:00Z,29.6830,-94.0330,9.1,5.1,320.0,6.7,'11111222,11111222,11111222' 
NDBC,ioos:station:NOAA.NDBC:SRST2:1,2019-05-04T23:00:00Z,29.6830,-94.0330,9.1,3.6,210.0,4.6,'11111222,11111222,11111222' 
NDBC,ioos:station:NOAA.NDBC:SRST2:1,2019-05-05T00:00:00Z,29.6830,-94.0330,9.1,3.1,260.0,3.6,'11111222,11111222,11111222' 
NDBC,ioos:station:NOAA.NDBC:SRST2:1,2019-05-05T01:00:00Z,29.6830,-94.0330,9.1,3.1,330.0,3.1,'11111222,11111222,11111222' 
NDBC,ioos:station:NOAA.NDBC:SRST2:1,2019-05-05T03:00:00Z,29.6830,-94.0330,9.1,2.6,340.0,2.6,'11111222,11111222,11111222' 
NDBC,ioos:station:NOAA.NDBC:SRST2:1,2019-05-05T04:00:00Z,29.6830,-94.0330,9.1,2.1,10.0,2.1,'11111222,11111222,11111222' 
NDBC,ioos:station:NOAA.NDBC:SRST2:1,2019-05-05T05:00:00Z,29.6830,-94.0330,9.1,2.1,50.0,2.6,'11111222,11111222,11111222' 
NDBC,ioos:station:NOAA.NDBC:SRST2:1,2019-05-05T06:00:00Z,29.6830,-94.0330,9.1,0.0,-9999.0,0.5,'11111222,11111222,11111222' 
NDBC,ioos:station:NOAA.NDBC:SRST2:1,2019-05-05T07:00:00Z,29.6830,-94.0330,9.1,2.6,40.0,2.6,'11111222,11111222,11111222' 
NDBC,ioos:station:NOAA.NDBC:SRST2:1,2019-05-05T08:00:00Z,29.6830,-94.0330,9.1,2.6,90.0,2.6,'11111222,11111222,11111222' 
NDBC,ioos:station:NOAA.NDBC:SRST2:1,2019-05-05T09:00:00Z,29.6830,-94.0330,9.1,3.1,60.0,3.6,'11111222,11111222,11111222' 
NDBC,ioos:station:NOAA.NDBC:SRST2:1,2019-05-05T10:00:00Z,29.6830,-94.0330,9.1,3.1,60.0,3.6,'11111222,11111222,11111222' 
NDBC,ioos:station:NOAA.NDBC:SRST2:1,2019-05-05T11:00:00Z,29.6830,-94.0330,9.1,2.6,80.0,2.6,'11111222,11111222,11111222' 
NDBC,ioos:station:NOAA.NDBC:SRST2:1,2019-05-05T12:00:00Z,29.6830,-94.0330,9.1,3.1,60.0,3.6,'11111222,11111222,11111222' 
NDBC,ioos:station:NOAA.NDBC:SRST2:1,2019-05-05T13:00:00Z,29.6830,-94.0330,9.1,2.1,60.0,3.1,'11111222,11111222,11111222' 
NDBC,ioos:station:NOAA.NDBC:SRST2:1,2019-05-05T23:00:00Z,29.6830,-94.0330,9.1,3.6,180.0,4.1,'11111222,11111222,11111222' 
NDBC,ioos:station:NOAA.NDBC:SRST2:1,2019-05-06T00:00:00Z,29.6830,-94.0330,9.1,2.6,180.0,3.1,'11111222,11111222,11111222' 
NDBC,ioos:station:NOAA.NDBC:SRST2:1,2019-05-06T01:00:00Z,29.6830,-94.0330,9.1,2.6,160.0,3.1,'11111222,11111222,11111222' 
NDBC,ioos:station:NOAA.NDBC:SRST2:1,2019-05-06T03:00:00Z,29.6830,-94.0330,9.1,3.1,150.0,3.6,'11111222,11111222,11111222' 
NDBC,ioos:station:NOAA.NDBC:SRST2:1,2019-05-06T04:00:00Z,29.6830,-94.0330,9.1,2.6,140.0,3.1,'11111222,11111222,11111222' 
NDBC,ioos:station:NOAA.NDBC:SRST2:1,2019-05-06T05:00:00Z,29.6830,-94.0330,9.1,2.6,130.0,3.1,'11111222,11111222,11111222' 
NDBC,ioos:station:NOAA.NDBC:SRST2:1,2019-05-06T06:00:00Z,29.6830,-94.0330,9.1,3.6,140.0,4.6,'11111222,11111222,11111222' 
NDBC,ioos:station:NOAA.NDBC:SRST2:1,2019-05-06T07:00:00Z,29.6830,-94.0330,9.1,4.1,140.0,4.6,'11111222,11111222,11111222' 
NDBC,ioos:station:NOAA.NDBC:SRST2:1,2019-05-06T08:00:00Z,29.6830,-94.0330,9.1,4.1,130.0,4.6,'11111222,11111222,11111222' 
NDBC,ioos:station:NOAA.NDBC:SRST2:1,2019-05-06T09:00:00Z,29.6830,-94.0330,9.1,4.1,130.0,4.6,'11111222,11111222,11111222' 
NDBC,ioos:station:NOAA.NDBC:SRST2:1,2019-05-06T10:00:00Z,29.6830,-94.0330,9.1,5.7,150.0,6.7,'11111222,11111222,11111222' 
NDBC,ioos:station:NOAA.NDBC:SRST2:1,2019-05-06T11:00:00Z,29.6830,-94.0330,9.1,4.6,150.0,5.7,'11111222,11111222,11111222' 
NDBC,ioos:station:NOAA.NDBC:SRST2:1,2019-05-06T12:00:00Z,29.6830,-94.0330,9.1,3.6,160.0,4.1,'11111222,11111222,11111222' 
NDBC,ioos:station:NOAA.NDBC:SRST2:1,2019-05-06T13:00:00Z,29.6830,-94.0330,9.1,3.1,110.0,4.1,'11111222,11111222,11111222' 
NDBC,ioos:station:NOAA.NDBC:SRST2:1,2019-05-07T00:00:00Z,29.6830,-94.0330,9.1,5.1,130.0,7.2,'11111222,11111222,11111222' 
NDBC,ioos:station:NOAA.NDBC:SRST2:1,2019-05-07T02:00:00Z,29.6830,-94.0330,9.1,5.1,120.0,7.7,'11111222,11111222,11111222' 
NDBC,ioos:station:NOAA.NDBC:SRST2:1,2019-05-07T03:00:00Z,29.6830,-94.0330,9.1,5.7,120.0,6.7,'11111222,11111222,11111222' 
NDBC,ioos:station:NOAA.NDBC:SRST2:1,2019-05-07T04:00:00Z,29.6830,-94.0330,9.1,7.2,120.0,8.2,'11111222,11111222,11111222' 
NDBC,ioos:station:NOAA.NDBC:SRST2:1,2019-05-07T05:00:00Z,29.6830,-94.0330,9.1,6.2,120.0,7.2,'11111222,11111222,11111222' 
NDBC,ioos:station:NOAA.NDBC:SRST2:1,2019-05-07T07:00:00Z,29.6830,-94.0330,9.1,5.1,150.0,6.7,'11111222,11111222,11111222' 
NDBC,ioos:station:NOAA.NDBC:SRST2:1,2019-05-07T08:00:00Z,29.6830,-94.0330,9.1,5.1,150.0,6.2,'11111222,11111222,11111222' 
NDBC,ioos:station:NOAA.NDBC:SRST2:1,2019-05-07T09:00:00Z,29.6830,-94.0330,9.1,4.6,140.0,5.7,'11111222,11111222,11111222' 
NDBC,ioos:station:NOAA.NDBC:SRST2:1,2019-05-07T11:00:00Z,29.6830,-94.0330,9.1,6.2,150.0,7.2,'11111222,11111222,11111222' 
NDBC,ioos:station:NOAA.NDBC:SRST2:1,2019-05-07T12:00:00Z,29.6830,-94.0330,9.1,4.6,140.0,5.7,'11111222,11111222,11111222' 
NDBC,ioos:station:NOAA.NDBC:SRST2:1,2019-05-07T14:00:00Z,29.6830,-94.0330,9.1,4.6,130.0,6.7,'11111222,11111222,11111222' 
NDBC,ioos:station:NOAA.NDBC:SRST2:1,2019-05-07T23:00:00Z,29.6830,-94.0330,9.1,6.2,120.0,7.2,'11111222,11111222,11111222' 
NDBC,ioos:station:NOAA.NDBC:SRST2:1,2019-05-08T00:00:00Z,29.6830,-94.0330,9.1,4.6,110.0,6.2,'11111222,11111222,11111222' 
NDBC,ioos:station:NOAA.NDBC:SRST2:1,2019-05-08T01:00:00Z,29.6830,-94.0330,9.1,6.2,100.0,7.7,'11111222,11111222,11111222' 
NDBC,ioos:station:NOAA.NDBC:SRST2:1,2019-05-08T02:00:00Z,29.6830,-94.0330,9.1,6.7,100.0,8.2,'11111222,11111222,11111222' 
NDBC,ioos:station:NOAA.NDBC:SRST2:1,2019-05-08T03:00:00Z,29.6830,-94.0330,9.1,6.7,120.0,8.8,'11111222,11111222,11111222' 
NDBC,ioos:station:NOAA.NDBC:SRST2:1,2019-05-08T04:00:00Z,29.6830,-94.0330,9.1,5.7,120.0,7.2,'11111222,11111222,11111222' 
NDBC,ioos:station:NOAA.NDBC:SRST2:1,2019-05-08T05:00:00Z,29.6830,-94.0330,9.1,3.6,180.0,3.6,'11111222,11111222,11111222' 
NDBC,ioos:station:NOAA.NDBC:SRST2:1,2019-05-08T06:00:00Z,29.6830,-94.0330,9.1,2.1,130.0,3.1,'11111222,11111222,11111222' 
NDBC,ioos:station:NOAA.NDBC:SRST2:1,2019-05-08T07:00:00Z,29.6830,-94.0330,9.1,5.7,130.0,7.7,'11111222,11111222,11111222' 
NDBC,ioos:station:NOAA.NDBC:SRST2:1,2019-05-08T08:00:00Z,29.6830,-94.0330,9.1,8.2,140.0,10.3,'11111222,11111222,11111222' 
NDBC,ioos:station:NOAA.NDBC:SRST2:1,2019-05-08T10:00:00Z,29.6830,-94.0330,9.1,8.8,170.0,10.3,'11111222,11111222,11111222' 
NDBC,ioos:station:NOAA.NDBC:SRST2:1,2019-05-08T11:00:00Z,29.6830,-94.0330,9.1,6.2,160.0,7.7,'11111222,11111222,11111222' 
NDBC,ioos:station:NOAA.NDBC:SRST2:1,2019-05-08T12:00:00Z,29.6830,-94.0330,9.1,4.6,160.0,6.2,'11111222,11111222,11111222' 
NDBC,ioos:station:NOAA.NDBC:SRST2:1,2019-05-08T13:00:00Z,29.6830,-94.0330,9.1,6.7,160.0,8.2,'11111222,11111222,11111222' 
NDBC,ioos:station:NOAA.NDBC:SRST2:1,2019-05-08T14:00:00Z,29.6830,-94.0330,9.1,8.2,150.0,9.8,'11111222,11111222,11111222' 
NDBC,ioos:station:NOAA.NDBC:SRST2:1,2019-05-08T15:00:00Z,29.6830,-94.0330,9.1,7.2,140.0,9.8,'11111222,11111222,11111222' 
NDBC,ioos:station:NOAA.NDBC:SRST2:1,2019-05-08T17:00:00Z,29.6830,-94.0330,9.1,7.2,140.0,9.8,'11111222,11111222,11111222' 
NDBC,ioos:station:NOAA.NDBC:SRST2:1,2019-05-08T21:00:00Z,29.6830,-94.0330,9.1,5.1,150.0,6.2,'11111222,11111222,11111222' 
NDBC,ioos:station:NOAA.NDBC:SRST2:1,2019-05-08T22:00:00Z,29.6830,-94.0330,9.1,7.2,150.0,8.2,'11111222,11111222,11111222' 
NDBC,ioos:station:NOAA.NDBC:SRST2:1,2019-05-08T23:00:00Z,29.6830,-94.0330,9.1,8.2,150.0,9.8,'11111222,11111222,11111222' 
NDBC,ioos:station:NOAA.NDBC:SRST2:1,2019-05-09T00:00:00Z,29.6830,-94.0330,9.1,6.7,160.0,8.8,'11111222,11111222,11111222' 
NDBC,ioos:station:NOAA.NDBC:SRST2:1,2019-05-09T01:00:00Z,29.6830,-94.0330,9.1,8.8,160.0,10.8,'11111222,11111222,11111222' 
NDBC,ioos:station:NOAA.NDBC:SRST2:1,2019-05-09T02:00:00Z,29.6830,-94.0330,9.1,7.7,160.0,9.8,'11111222,11111222,11111222' 
NDBC,ioos:station:NOAA.NDBC:SRST2:1,2019-05-09T03:00:00Z,29.6830,-94.0330,9.1,7.7,160.0,9.8,'11111222,11111222,11111222' 
NDBC,ioos:station:NOAA.NDBC:SRST2:1,2019-05-09T04:00:00Z,29.6830,-94.0330,9.1,7.7,160.0,9.8,'11111222,11111222,11111222' 
NDBC,ioos:station:NOAA.NDBC:SRST2:1,2019-05-09T05:00:00Z,29.6830,-94.0330,9.1,8.2,170.0,9.8,'11111222,11111222,11111222' 
NDBC,ioos:station:NOAA.NDBC:SRST2:1,2019-05-09T06:00:00Z,29.6830,-94.0330,9.1,7.7,170.0,9.8,'11111222,11111222,11111222' 
NDBC,ioos:station:NOAA.NDBC:SRST2:1,2019-05-09T07:00:00Z,29.6830,-94.0330,9.1,7.7,180.0,9.3,'11111222,11111222,11111222' 
NDBC,ioos:station:NOAA.NDBC:SRST2:1,2019-05-09T08:00:00Z,29.6830,-94.0330,9.1,6.2,180.0,8.2,'11111222,11111222,11111222' 
NDBC,ioos:station:NOAA.NDBC:SRST2:1,2019-05-09T09:00:00Z,29.6830,-94.0330,9.1,6.2,190.0,8.2,'11111222,11111222,11111222' 
NDBC,ioos:station:NOAA.NDBC:SRST2:1,2019-05-09T10:00:00Z,29.6830,-94.0330,9.1,7.2,200.0,8.8,'11111222,11111222,11111222' 
NDBC,ioos:station:NOAA.NDBC:SRST2:1,2019-05-09T11:00:00Z,29.6830,-94.0330,9.1,5.1,200.0,6.2,'11111222,11111222,11111222' 
NDBC,ioos:station:NOAA.NDBC:SRST2:1,2019-05-09T12:00:00Z,29.6830,-94.0330,9.1,4.6,190.0,5.7,'11111222,11111222,11111222' 
NDBC,ioos:station:NOAA.NDBC:SRST2:1,2019-05-09T13:00:00Z,29.6830,-94.0330,9.1,5.1,190.0,6.2,'11111222,11111222,11111222' 
NDBC,ioos:station:NOAA.NDBC:SRST2:1,2019-05-09T14:00:00Z,29.6830,-94.0330,9.1,4.6,190.0,5.1,'11111222,11111222,11111222' 
NDBC,ioos:station:NOAA.NDBC:SRST2:1,2019-05-09T15:00:00Z,29.6830,-94.0330,9.1,4.1,180.0,5.1,'11111222,11111222,11111222' 
NDBC,ioos:station:NOAA.NDBC:SRST2:1,2019-05-10T02:00:00Z,29.6830,-94.0330,9.1,8.2,90.0,10.3,'11111222,11111222,11111222' 
NDBC,ioos:station:NOAA.NDBC:SRST2:1,2019-05-10T03:00:00Z,29.6830,-94.0330,9.1,8.8,90.0,10.8,'11111222,11111222,11111222' 
NDBC,ioos:station:NOAA.NDBC:SRST2:1,2019-05-10T04:00:00Z,29.6830,-94.0330,9.1,10.3,100.0,12.9,'11111222,11111222,11111222' 
NDBC,ioos:station:NOAA.NDBC:SRST2:1,2019-05-10T05:00:00Z,29.6830,-94.0330,9.1,12.9,120.0,15.4,'11111222,11111222,11111222' 
NDBC,ioos:station:NOAA.NDBC:SRST2:1,2019-05-10T06:00:00Z,29.6830,-94.0330,9.1,12.4,360.0,15.4,'11111222,11144222,11111222' 
NDBC,ioos:station:NOAA.NDBC:SRST2:1,2019-05-10T07:00:00Z,29.6830,-94.0330,9.1,10.3,10.0,13.4,'11111222,11111222,11111222' 
NDBC,ioos:station:NOAA.NDBC:SRST2:1,2019-05-10T09:00:00Z,29.6830,-94.0330,9.1,2.6,360.0,3.1,'11111222,11144222,11111222' 
NDBC,ioos:station:NOAA.NDBC:SRST2:1,2019-05-10T10:00:00Z,29.6830,-94.0330,9.1,3.6,50.0,4.6,'11111222,11111222,11111222' 
NDBC,ioos:station:NOAA.NDBC:SRST2:1,2019-05-10T11:00:00Z,29.6830,-94.0330,9.1,6.2,60.0,7.7,'11111222,11111222,11111222' 
NDBC,ioos:station:NOAA.NDBC:SRST2:1,2019-05-10T13:00:00Z,29.6830,-94.0330,9.1,4.1,60.0,5.7,'11111222,11111222,11111222' 
NDBC,ioos:station:NOAA.NDBC:SRST2:1,2019-05-10T14:00:00Z,29.6830,-94.0330,9.1,3.1,100.0,3.6,'11111222,11111222,11111222' 
NDBC,ioos:station:NOAA.NDBC:SRST2:1,2019-05-10T15:00:00Z,29.6830,-94.0330,9.1,3.1,60.0,3.6,'11111222,11111222,11111222' 
NDBC,ioos:station:NOAA.NDBC:SRST2:1,2019-05-10T16:00:00Z,29.6830,-94.0330,9.1,4.6,30.0,6.2,'11111222,11111222,11111222' 
NDBC,ioos:station:NOAA.NDBC:SRST2:1,2019-05-10T18:00:00Z,29.6830,-94.0330,9.1,3.6,80.0,4.6,'11111222,11111222,11111222' 
NDBC,ioos:station:NOAA.NDBC:SRST2:1,2019-05-10T19:00:00Z,29.6830,-94.0330,9.1,4.6,80.0,6.2,'11111222,11111222,11111222' 
NDBC,ioos:station:NOAA.NDBC:SRST2:1,2019-05-10T20:00:00Z,29.6830,-94.0330,9.1,4.1,70.0,5.7,'11111222,11111222,11111222' 
NDBC,ioos:station:NOAA.NDBC:SRST2:1,2019-05-10T21:00:00Z,29.6830,-94.0330,9.1,3.6,50.0,4.1,'11111222,11111222,11111222' 
NDBC,ioos:station:NOAA.NDBC:SRST2:1,2019-05-10T22:00:00Z,29.6830,-94.0330,9.1,5.1,50.0,6.2,'11111222,11111222,11111222' 
NDBC,ioos:station:NOAA.NDBC:SRST2:1,2019-05-10T23:00:00Z,29.6830,-94.0330,9.1,5.7,40.0,7.2,'11111222,11111222,11111222' 
NDBC,ioos:station:NOAA.NDBC:SRST2:1,2019-05-11T00:00:00Z,29.6830,-94.0330,9.1,5.1,40.0,5.7,'11111222,11111222,11111222' 
NDBC,ioos:station:NOAA.NDBC:SRST2:1,2019-05-11T01:00:00Z,29.6830,-94.0330,9.1,3.6,20.0,4.1,'11111222,11111222,11111222' 
NDBC,ioos:station:NOAA.NDBC:SRST2:1,2019-05-11T03:00:00Z,29.6830,-94.0330,9.1,2.1,60.0,2.6,'11111222,11111222,11111222' 
NDBC,ioos:station:NOAA.NDBC:SRST2:1,2019-05-11T04:00:00Z,29.6830,-94.0330,9.1,2.1,70.0,2.1,'11111222,11111222,11111222' 
NDBC,ioos:station:NOAA.NDBC:SRST2:1,2019-05-11T05:00:00Z,29.6830,-94.0330,9.1,1.5,50.0,1.5,'11111222,11111222,11111222' 
NDBC,ioos:station:NOAA.NDBC:SRST2:1,2019-05-11T06:00:00Z,29.6830,-94.0330,9.1,3.1,40.0,3.6,'11111222,11111222,11111222' 
NDBC,ioos:station:NOAA.NDBC:SRST2:1,2019-05-11T07:00:00Z,29.6830,-94.0330,9.1,2.6,60.0,3.1,'11111222,11111222,11111222' 
NDBC,ioos:station:NOAA.NDBC:SRST2:1,2019-05-11T08:00:00Z,29.6830,-94.0330,9.1,2.6,40.0,3.1,'11111222,11111222,11111222' 
NDBC,ioos:station:NOAA.NDBC:SRST2:1,2019-05-11T09:00:00Z,29.6830,-94.0330,9.1,2.6,50.0,3.6,'11111222,11111222,11111222' 
NDBC,ioos:station:NOAA.NDBC:SRST2:1,2019-05-11T10:00:00Z,29.6830,-94.0330,9.1,2.1,50.0,3.1,'11111222,11111222,11111222' 
NDBC,ioos:station:NOAA.NDBC:SRST2:1,2019-05-11T11:00:00Z,29.6830,-94.0330,9.1,2.1,50.0,2.6,'11111222,11111222,11111222' 
NDBC,ioos:station:NOAA.NDBC:SRST2:1,2019-05-11T12:00:00Z,29.6830,-94.0330,9.1,2.6,70.0,2.6,'11111222,11111222,11111222' 
NDBC,ioos:station:NOAA.NDBC:SRST2:1,2019-05-11T13:00:00Z,29.6830,-94.0330,9.1,1.5,110.0,3.1,'11111222,11111222,11111222' 
NDBC,ioos:station:NOAA.NDBC:SRST2:1,2019-05-13T12:00:00Z,29.6830,-94.0330,9.1,3.1,30.0,3.1,'11111222,11111222,11111222' 
NDBC,ioos:station:NOAA.NDBC:SRST2:1,2019-05-13T14:00:00Z,29.6830,-94.0330,9.1,3.1,60.0,4.1,'11111222,11111222,11111222' 
NDBC,ioos:station:NOAA.NDBC:SRST2:1,2019-05-14T02:00:00Z,29.6830,-94.0330,9.1,3.1,120.0,4.1,'11111222,11111222,11111222' 
NDBC,ioos:station:NOAA.NDBC:SRST2:1,2019-05-14T03:00:00Z,29.6830,-94.0330,9.1,3.6,100.0,4.1,'11111222,11111222,11111222' 
NDBC,ioos:station:NOAA.NDBC:SRST2:1,2019-05-14T04:00:00Z,29.6830,-94.0330,9.1,2.6,70.0,3.1,'11111222,11111222,11111222' 
NDBC,ioos:station:NOAA.NDBC:SRST2:1,2019-05-14T05:00:00Z,29.6830,-94.0330,9.1,3.1,80.0,3.1,'11111222,11111222,11111222' 
NDBC,ioos:station:NOAA.NDBC:SRST2:1,2019-05-14T06:00:00Z,29.6830,-94.0330,9.1,3.1,80.0,4.1,'11111222,11111222,11111222' 
NDBC,ioos:station:NOAA.NDBC:SRST2:1,2019-05-14T07:00:00Z,29.6830,-94.0330,9.1,3.1,70.0,3.6,'11111222,11111222,11111222' 
NDBC,ioos:station:NOAA.NDBC:SRST2:1,2019-05-14T08:00:00Z,29.6830,-94.0330,9.1,3.6,70.0,3.6,'11111222,11111222,11111222' 
NDBC,ioos:station:NOAA.NDBC:SRST2:1,2019-05-14T09:00:00Z,29.6830,-94.0330,9.1,2.6,70.0,2.6,'11111222,11111222,11111222' 
NDBC,ioos:station:NOAA.NDBC:SRST2:1,2019-05-14T10:00:00Z,29.6830,-94.0330,9.1,3.1,60.0,3.1,'11111222,11111222,11111222' 
NDBC,ioos:station:NOAA.NDBC:SRST2:1,2019-05-14T11:00:00Z,29.6830,-94.0330,9.1,3.1,50.0,3.1,'11111222,11111222,11111222' 
NDBC,ioos:station:NOAA.NDBC:SRST2:1,2019-05-14T12:00:00Z,29.6830,-94.0330,9.1,2.1,40.0,2.6,'11111222,11111222,11111222' 
NDBC,ioos:station:NOAA.NDBC:SRST2:1,2019-05-14T13:00:00Z,29.6830,-94.0330,9.1,2.6,60.0,2.6,'11111222,11111222,11111222' 
NDBC,ioos:station:NOAA.NDBC:SRST2:1,2019-05-15T05:00:00Z,29.6830,-94.0330,9.1,5.7,130.0,6.7,'11111222,11111222,11111222' 
NDBC,ioos:station:NOAA.NDBC:SRST2:1,2019-05-15T06:00:00Z,29.6830,-94.0330,9.1,5.1,140.0,5.7,'11111222,11111222,11111222' 
NDBC,ioos:station:NOAA.NDBC:SRST2:1,2019-05-15T08:00:00Z,29.6830,-94.0330,9.1,3.6,140.0,4.1,'11111222,11111222,11111222' 
NDBC,ioos:station:NOAA.NDBC:SRST2:1,2019-05-15T12:00:00Z,29.6830,-94.0330,9.1,2.1,40.0,2.1,'11111222,11111222,11111222' 
NDBC,ioos:station:NOAA.NDBC:SRST2:1,2019-05-15T13:00:00Z,29.6830,-94.0330,9.1,1.5,50.0,1.5,'11111222,11111222,11111222' 
NDBC,ioos:station:NOAA.NDBC:SRST2:1,2019-05-16T04:00:00Z,29.6830,-94.0330,9.1,5.7,170.0,6.7,'11111222,11111222,11111222' 
NDBC,ioos:station:NOAA.NDBC:SRST2:1,2019-05-16T05:00:00Z,29.6830,-94.0330,9.1,4.1,160.0,4.6,'11111222,11111222,11111222' 
NDBC,ioos:station:NOAA.NDBC:SRST2:1,2019-05-16T08:00:00Z,29.6830,-94.0330,9.1,3.1,150.0,4.1,'11111222,11111222,11111222' 
NDBC,ioos:station:NOAA.NDBC:SRST2:1,2019-05-16T10:00:00Z,29.6830,-94.0330,9.1,2.6,160.0,3.1,'11111222,11111222,11111222' 
NDBC,ioos:station:NOAA.NDBC:SRST2:1,2019-05-16T11:00:00Z,29.6830,-94.0330,9.1,2.6,150.0,3.1,'11111222,11111222,11111222' 
NDBC,ioos:station:NOAA.NDBC:SRST2:1,2019-05-16T12:00:00Z,29.6830,-94.0330,9.1,2.1,160.0,2.1,'11111222,11111222,11111222' 
NDBC,ioos:station:NOAA.NDBC:SRST2:1,2019-05-16T13:00:00Z,29.6830,-94.0330,9.1,2.1,130.0,2.6,'11111222,11111222,11111222' 
NDBC,ioos:station:NOAA.NDBC:SRST2:1,2019-05-17T02:00:00Z,29.6830,-94.0330,9.1,4.1,140.0,4.6,'11111222,11111222,11111222' 
NDBC,ioos:station:NOAA.NDBC:SRST2:1,2019-05-17T04:00:00Z,29.6830,-94.0330,9.1,5.1,150.0,6.2,'11111222,11111222,11111222' 
NDBC,ioos:station:NOAA.NDBC:SRST2:1,2019-05-17T05:00:00Z,29.6830,-94.0330,9.1,5.7,140.0,7.2,'11111222,11111222,11111222' 
NDBC,ioos:station:NOAA.NDBC:SRST2:1,2019-05-17T06:00:00Z,29.6830,-94.0330,9.1,6.2,150.0,6.7,'11111222,11111222,11111222' 